Time,TemperatureF,DewpointF,PressureIn,WindDirection,WindDirectionDegrees,WindSpeedMPH,WindSpeedGustMPH,Humidity,HourlyPrecipIn,Conditions,Clouds,dailyrainin,SoftwareType,DateUTC
2013-03-09 00:00:00,26.4,32.0,28.91,North,3,0.0,0.0,29,0.00,,,-99.99,wx200d/1.3,2013-03-09 05:00:00,
2013-03-09 00:04:00,26.4,32.0,28.91,North,0,0.0,0.0,31,0.00,,,-99.99,wx200d/1.3,2013-03-09 05:04:00,
2013-03-09 00:10:00,26.4,32.0,28.91,NNE,15,0.0,0.0,31,0.00,,,-99.99,wx200d/1.3,2013-03-09 05:10:00,
2013-03-09 00:16:00,26.4,32.0,28.91,North,11,0.0,0.0,31,0.00,,,-99.99,wx200d/1.3,2013-03-09 05:16:00,
2013-03-09 00:18:00,26.4,32.0,28.91,North,4,0.0,0.0,31,0.00,,,-99.99,wx200d/1.3,2013-03-09 05:18:00,
2013-03-09 00:24:00,26.4,32.0,28.91,North,6,0.0,0.0,31,0.00,,,-99.99,wx200d/1.3,2013-03-09 05:24:00,
2013-03-09 00:30:00,26.4,32.0,28.91,North,353,0.0,0.0,31,0.00,,,-99.99,wx200d/1.3,2013-03-09 05:30:00,
2013-03-09 00:36:00,26.2,32.0,28.91,North,353,0.0,0.0,31,0.00,,,-99.99,wx200d/1.3,2013-03-09 05:36:00,
2013-03-09 00:42:00,26.2,32.0,28.91,North,353,0.0,0.0,31,0.00,,,-99.99,wx200d/1.3,2013-03-09 05:42:00,
2013-03-09 00:48:00,26.2,32.0,28.91,North,353,0.0,0.0,31,0.00,,,-99.99,wx200d/1.3,2013-03-09 05:48:00,
2013-03-09 00:54:00,26.2,32.0,28.91,North,353,0.0,0.0,31,0.00,,,-99.99,wx200d/1.3,2013-03-09 05:54:00,
2013-03-09 01:00:00,26.1,32.0,28.91,North,357,0.0,0.0,31,0.00,,,-99.99,wx200d/1.3,2013-03-09 06:00:00,
2013-03-09 01:06:00,26.2,32.0,28.91,North,0,0.0,0.0,31,0.00,,,-99.99,wx200d/1.3,2013-03-09 06:06:00,
2013-03-09 01:12:00,26.1,32.0,28.91,North,0,0.0,0.0,31,0.00,,,-99.99,wx200d/1.3,2013-03-09 06:12:00,
2013-03-09 01:18:00,26.1,32.0,28.91,NW,312,0.0,2.7,31,0.00,,,-99.99,wx200d/1.3,2013-03-09 06:18:00,
2013-03-09 01:24:00,26.1,32.0,28.91,North,4,0.0,0.0,31,0.00,,,-99.99,wx200d/1.3,2013-03-09 06:24:00,
2013-03-09 01:30:00,26.1,32.0,28.91,North,0,0.0,0.0,31,0.00,,,-99.99,wx200d/1.3,2013-03-09 06:30:00,
2013-03-09 01:36:00,25.9,32.0,28.91,North,7,0.0,0.0,31,0.00,,,-99.99,wx200d/1.3,2013-03-09 06:36:00,
2013-03-09 01:42:00,25.7,32.0,28.91,North,1,0.0,0.0,31,0.00,,,-99.99,wx200d/1.3,2013-03-09 06:42:00,
2013-03-09 01:48:00,25.7,32.0,28.91,North,0,0.0,0.0,31,0.00,,,-99.99,wx200d/1.3,2013-03-09 06:48:00,
2013-03-09 01:54:00,25.5,32.0,28.91,North,357,0.0,0.0,31,0.00,,,-99.99,wx200d/1.3,2013-03-09 06:54:00,
2013-03-09 02:00:00,25.5,32.0,28.91,North,0,0.0,0.0,31,0.00,,,-99.99,wx200d/1.3,2013-03-09 07:00:00,
2013-03-09 02:06:00,25.5,32.0,28.91,North,0,0.0,0.0,31,0.00,,,-99.99,wx200d/1.3,2013-03-09 07:06:00,
2013-03-09 02:12:00,25.3,32.0,28.91,North,0,0.0,0.0,29,0.00,,,-99.99,wx200d/1.3,2013-03-09 07:12:00,
2013-03-09 02:18:00,25.3,32.0,28.91,North,0,0.0,0.0,29,0.00,,,-99.99,wx200d/1.3,2013-03-09 07:18:00,
2013-03-09 02:24:00,25.2,32.0,28.91,North,353,0.0,0.0,29,0.00,,,-99.99,wx200d/1.3,2013-03-09 07:24:00,
2013-03-09 02:30:00,25.0,32.0,28.91,North,353,0.0,0.0,29,0.00,,,-99.99,wx200d/1.3,2013-03-09 07:30:00,
2013-03-09 02:36:00,24.8,32.0,28.91,North,353,0.0,0.0,29,0.00,,,-99.99,wx200d/1.3,2013-03-09 07:36:00,
2013-03-09 02:42:00,24.8,32.0,28.91,North,353,0.0,0.0,29,0.00,,,-99.99,wx200d/1.3,2013-03-09 07:42:00,
2013-03-09 02:48:00,24.6,32.0,28.91,North,353,0.0,0.0,29,0.00,,,-99.99,wx200d/1.3,2013-03-09 07:48:00,
2013-03-09 02:54:00,24.4,32.0,28.91,North,353,0.0,0.0,29,0.00,,,-99.99,wx200d/1.3,2013-03-09 07:54:00,
2013-03-09 03:00:00,24.4,32.0,28.91,NNE,17,2.2,0.0,32,0.00,,,-99.99,wx200d/1.3,2013-03-09 08:00:00,
2013-03-09 03:06:00,24.4,32.0,28.88,NNE,17,0.0,0.0,32,0.00,,,-99.99,wx200d/1.3,2013-03-09 08:06:00,
2013-03-09 03:12:00,24.4,32.0,28.88,NNE,17,0.0,0.0,32,0.00,,,-99.99,wx200d/1.3,2013-03-09 08:12:00,
2013-03-09 03:18:00,24.4,32.0,28.88,NNE,17,0.0,0.0,32,0.00,,,-99.99,wx200d/1.3,2013-03-09 08:18:00,
2013-03-09 03:24:00,24.4,32.0,28.88,NNE,17,0.0,0.0,32,0.00,,,-99.99,wx200d/1.3,2013-03-09 08:24:00,
2013-03-09 03:30:00,24.4,32.0,28.88,North,357,0.0,0.0,32,0.00,,,-99.99,wx200d/1.3,2013-03-09 08:30:00,
2013-03-09 03:36:00,24.4,32.0,28.88,North,2,0.0,0.0,32,0.00,,,-99.99,wx200d/1.3,2013-03-09 08:36:00,
2013-03-09 03:42:00,24.4,32.0,28.88,North,2,0.0,0.0,32,0.00,,,-99.99,wx200d/1.3,2013-03-09 08:42:00,
2013-03-09 03:48:00,24.4,32.0,28.91,North,2,0.0,0.0,32,0.00,,,-99.99,wx200d/1.3,2013-03-09 08:48:00,
2013-03-09 03:54:00,24.4,32.0,28.91,North,6,0.0,0.0,32,0.00,,,-99.99,wx200d/1.3,2013-03-09 08:54:00,
2013-03-09 04:00:00,24.4,32.0,28.91,North,0,0.0,0.0,32,0.00,,,-99.99,wx200d/1.3,2013-03-09 09:00:00,
2013-03-09 04:06:00,24.4,32.0,28.91,NNW,344,0.0,0.0,29,0.00,,,-99.99,wx200d/1.3,2013-03-09 09:06:00,
2013-03-09 04:12:00,24.4,32.0,28.91,North,10,0.0,0.0,29,0.00,,,-99.99,wx200d/1.3,2013-03-09 09:12:00,
2013-03-09 04:18:00,24.4,32.0,28.91,North,10,0.0,0.0,29,0.00,,,-99.99,wx200d/1.3,2013-03-09 09:18:00,
2013-03-09 04:24:00,24.3,32.0,28.91,NE,49,0.0,0.0,29,0.00,,,-99.99,wx200d/1.3,2013-03-09 09:24:00,
2013-03-09 04:30:00,24.1,32.0,28.91,NE,49,0.0,0.0,29,0.00,,,-99.99,wx200d/1.3,2013-03-09 09:30:00,
2013-03-09 04:36:00,23.9,32.0,28.88,NE,48,0.0,0.0,29,0.00,,,-99.99,wx200d/1.3,2013-03-09 09:36:00,
2013-03-09 04:42:00,23.7,32.0,28.88,NE,48,0.0,0.0,32,0.00,,,-99.99,wx200d/1.3,2013-03-09 09:42:00,
2013-03-09 04:48:00,23.7,32.0,28.91,NNE,12,0.0,0.0,32,0.00,,,-99.99,wx200d/1.3,2013-03-09 09:48:00,
2013-03-09 04:54:00,23.5,32.0,28.91,North,357,0.0,0.0,32,0.00,,,-99.99,wx200d/1.3,2013-03-09 09:54:00,
2013-03-09 05:00:00,23.5,32.0,28.91,North,357,0.0,0.0,32,0.00,,,-99.99,wx200d/1.3,2013-03-09 10:00:00,
2013-03-09 05:06:00,23.5,32.0,28.91,North,357,0.0,0.0,32,0.00,,,-99.99,wx200d/1.3,2013-03-09 10:06:00,
2013-03-09 05:12:00,23.5,32.0,28.91,North,357,0.0,0.0,32,0.00,,,-99.99,wx200d/1.3,2013-03-09 10:12:00,
2013-03-09 05:18:00,23.4,32.0,28.91,North,357,0.0,0.0,32,0.00,,,-99.99,wx200d/1.3,2013-03-09 10:18:00,
2013-03-09 05:24:00,23.4,32.0,28.91,North,357,0.0,0.0,32,0.00,,,-99.99,wx200d/1.3,2013-03-09 10:24:00,
2013-03-09 05:30:00,23.2,32.0,28.91,North,357,0.0,0.0,32,0.00,,,-99.99,wx200d/1.3,2013-03-09 10:30:00,
2013-03-09 05:36:00,23.0,32.0,28.94,North,357,0.0,0.0,32,0.00,,,-99.99,wx200d/1.3,2013-03-09 10:36:00,
2013-03-09 05:42:00,22.8,32.0,28.94,North,357,0.0,0.0,32,0.00,,,-99.99,wx200d/1.3,2013-03-09 10:42:00,
2013-03-09 05:48:00,22.8,32.0,28.94,North,357,0.0,0.0,32,0.00,,,-99.99,wx200d/1.3,2013-03-09 10:48:00,
2013-03-09 05:54:00,22.8,32.0,28.94,North,357,0.0,0.0,32,0.00,,,-99.99,wx200d/1.3,2013-03-09 10:54:00,
2013-03-09 06:00:00,22.6,32.0,28.94,North,357,0.0,0.0,32,0.00,,,-99.99,wx200d/1.3,2013-03-09 11:00:00,
2013-03-09 06:06:00,22.6,32.0,28.94,North,357,0.0,0.0,32,0.00,,,-99.99,wx200d/1.3,2013-03-09 11:06:00,
2013-03-09 06:12:00,22.5,32.0,28.94,North,357,0.0,0.0,32,0.00,,,-99.99,wx200d/1.3,2013-03-09 11:12:00,
2013-03-09 06:18:00,22.5,32.0,28.94,North,357,0.0,0.0,32,0.00,,,-99.99,wx200d/1.3,2013-03-09 11:18:00,
2013-03-09 06:24:00,22.3,32.0,28.94,North,357,0.0,0.0,32,0.00,,,-99.99,wx200d/1.3,2013-03-09 11:24:00,
2013-03-09 06:30:00,22.3,32.0,28.94,North,357,0.0,0.0,32,0.00,,,-99.99,wx200d/1.3,2013-03-09 11:30:00,
2013-03-09 06:36:00,22.3,32.0,28.94,North,357,0.0,0.0,32,0.00,,,-99.99,wx200d/1.3,2013-03-09 11:36:00,
2013-03-09 06:42:00,22.3,32.0,28.94,North,357,0.0,0.0,32,0.00,,,-99.99,wx200d/1.3,2013-03-09 11:42:00,
2013-03-09 06:48:00,22.1,32.0,28.97,North,357,0.0,0.0,33,0.00,,,-99.99,wx200d/1.3,2013-03-09 11:48:00,
2013-03-09 06:54:00,22.1,32.0,28.97,North,357,0.0,0.0,33,0.00,,,-99.99,wx200d/1.3,2013-03-09 11:54:00,
2013-03-09 07:00:00,22.1,32.0,28.97,North,357,0.0,0.0,33,0.00,,,-99.99,wx200d/1.3,2013-03-09 12:00:00,
2013-03-09 07:06:00,22.1,32.0,28.97,North,357,0.0,0.0,33,0.00,,,-99.99,wx200d/1.3,2013-03-09 12:06:00,
2013-03-09 07:12:00,22.1,32.0,28.97,North,357,0.0,0.0,33,0.00,,,-99.99,wx200d/1.3,2013-03-09 12:12:00,
2013-03-09 07:18:00,22.1,32.0,28.97,North,357,0.0,0.0,33,0.00,,,-99.99,wx200d/1.3,2013-03-09 12:18:00,
2013-03-09 07:24:00,22.1,32.0,28.97,North,357,0.0,0.0,33,0.00,,,-99.99,wx200d/1.3,2013-03-09 12:24:00,
2013-03-09 07:30:00,22.1,32.0,28.97,North,357,0.0,0.0,33,0.00,,,-99.99,wx200d/1.3,2013-03-09 12:30:00,
2013-03-09 07:36:00,22.3,32.0,28.97,North,357,0.0,0.0,33,0.00,,,-99.99,wx200d/1.3,2013-03-09 12:36:00,
2013-03-09 07:42:00,22.5,32.0,28.97,North,0,0.0,0.0,33,0.00,,,-99.99,wx200d/1.3,2013-03-09 12:42:00,
2013-03-09 07:48:00,22.8,32.0,28.97,North,0,0.0,0.0,33,0.00,,,-99.99,wx200d/1.3,2013-03-09 12:48:00,
2013-03-09 07:54:00,23.0,32.0,28.97,North,10,0.0,0.0,33,0.00,,,-99.99,wx200d/1.3,2013-03-09 12:54:00,
2013-03-09 08:00:00,23.4,32.0,28.97,North,357,0.0,0.0,33,0.00,,,-99.99,wx200d/1.3,2013-03-09 13:00:00,
2013-03-09 08:06:00,23.5,32.0,28.97,North,9,2.2,2.2,33,0.00,,,-99.99,wx200d/1.3,2013-03-09 13:06:00,
2013-03-09 08:12:00,24.4,32.0,28.97,North,0,0.0,0.0,33,0.00,,,-99.99,wx200d/1.3,2013-03-09 13:12:00,
2013-03-09 08:18:00,25.0,32.0,28.97,North,4,0.0,0.0,32,0.00,,,-99.99,wx200d/1.3,2013-03-09 13:18:00,
2013-03-09 08:24:00,25.7,32.0,28.97,NE,53,0.0,0.0,32,0.00,,,-99.99,wx200d/1.3,2013-03-09 13:24:00,
2013-03-09 08:30:00,26.4,32.0,28.97,North,3,2.2,0.0,32,0.00,,,-99.99,wx200d/1.3,2013-03-09 13:30:00,
2013-03-09 08:36:00,27.0,32.0,28.97,North,7,0.0,0.0,32,0.00,,,-99.99,wx200d/1.3,2013-03-09 13:36:00,
2013-03-09 08:42:00,28.2,32.0,28.97,North,357,2.2,0.0,31,0.00,,,-99.99,wx200d/1.3,2013-03-09 13:42:00,
2013-03-09 08:48:00,29.5,32.0,28.97,NW,306,0.0,0.0,30,0.00,,,-99.99,wx200d/1.3,2013-03-09 13:48:00,
2013-03-09 08:54:00,30.7,32.0,28.97,WNW,300,0.0,0.0,30,0.00,,,-99.99,wx200d/1.3,2013-03-09 13:54:00,
2013-03-09 09:00:00,32.2,32.0,28.97,NE,36,0.0,0.0,25,0.00,,,-99.99,wx200d/1.3,2013-03-09 14:00:00,
2013-03-09 09:06:00,33.3,32.0,28.97,NNW,339,0.0,2.7,23,0.00,,,-99.99,wx200d/1.3,2013-03-09 14:06:00,
2013-03-09 09:12:00,34.2,32.0,28.97,NE,36,0.0,3.1,22,0.00,,,-99.99,wx200d/1.3,2013-03-09 14:12:00,
2013-03-09 09:18:00,34.9,32.0,28.97,East,82,0.0,0.0,20,0.00,,,-99.99,wx200d/1.3,2013-03-09 14:18:00,
2013-03-09 09:24:00,35.8,32.0,28.97,North,349,0.0,5.8,19,0.00,,,-99.99,wx200d/1.3,2013-03-09 14:24:00,
2013-03-09 09:30:00,36.9,32.0,28.97,North,353,0.0,3.1,19,0.00,,,-99.99,wx200d/1.3,2013-03-09 14:30:00,
2013-03-09 09:36:00,37.9,32.0,28.97,NNE,24,0.0,0.0,19,0.00,,,-99.99,wx200d/1.3,2013-03-09 14:36:00,
2013-03-09 09:42:00,38.7,32.0,28.97,NE,49,0.0,0.0,19,0.00,,,-99.99,wx200d/1.3,2013-03-09 14:42:00,
2013-03-09 09:48:00,39.4,32.0,28.97,NW,321,0.0,0.0,18,0.00,,,-99.99,wx200d/1.3,2013-03-09 14:48:00,
2013-03-09 09:54:00,40.3,32.0,28.97,North,2,0.0,0.0,18,0.00,,,-99.99,wx200d/1.3,2013-03-09 14:54:00,
2013-03-09 10:00:00,41.0,32.0,28.97,North,0,0.0,2.7,18,0.00,,,-99.99,wx200d/1.3,2013-03-09 15:00:00,
2013-03-09 10:06:00,41.7,32.0,28.97,NNW,329,2.7,3.6,18,0.00,,,-99.99,wx200d/1.3,2013-03-09 15:06:00,
2013-03-09 10:12:00,42.8,32.0,28.97,North,0,3.6,4.0,18,0.00,,,-99.99,wx200d/1.3,2013-03-09 15:12:00,
2013-03-09 10:18:00,43.5,32.0,28.97,North,8,2.2,3.1,18,0.00,,,-99.99,wx200d/1.3,2013-03-09 15:18:00,
2013-03-09 10:24:00,44.6,32.0,28.97,NNW,346,0.0,4.9,17,0.00,,,-99.99,wx200d/1.3,2013-03-09 15:24:00,
2013-03-09 10:30:00,45.7,32.0,28.97,NW,314,2.2,3.1,17,0.00,,,-99.99,wx200d/1.3,2013-03-09 15:30:00,
2013-03-09 10:36:00,46.6,32.0,28.97,NNE,17,0.0,2.7,17,0.00,,,-99.99,wx200d/1.3,2013-03-09 15:36:00,
2013-03-09 10:42:00,47.1,32.0,28.97,North,0,0.0,0.0,17,0.00,,,-99.99,wx200d/1.3,2013-03-09 15:42:00,
2013-03-09 10:48:00,47.8,32.0,28.97,SW,235,2.2,0.0,17,0.00,,,-99.99,wx200d/1.3,2013-03-09 15:48:00,
2013-03-09 10:54:00,48.2,32.0,28.97,West,276,2.2,0.0,16,0.00,,,-99.99,wx200d/1.3,2013-03-09 15:54:00,
2013-03-09 11:00:00,48.4,32.0,28.97,North,2,3.6,4.0,16,0.00,,,-99.99,wx200d/1.3,2013-03-09 16:00:00,
2013-03-09 11:06:00,48.7,32.0,29.00,North,353,0.0,0.0,16,0.00,,,-99.99,wx200d/1.3,2013-03-09 16:06:00,
2013-03-09 11:12:00,48.7,32.0,29.00,NNE,17,3.6,4.9,16,0.00,,,-99.99,wx200d/1.3,2013-03-09 16:12:00,
2013-03-09 11:18:00,48.7,32.0,29.00,North,357,0.0,2.7,16,0.00,,,-99.99,wx200d/1.3,2013-03-09 16:18:00,
2013-03-09 11:24:00,48.7,32.0,29.00,NNE,27,2.2,3.6,16,0.00,,,-99.99,wx200d/1.3,2013-03-09 16:24:00,
2013-03-09 11:30:00,48.6,32.0,29.00,North,1,2.2,2.2,16,0.00,,,-99.99,wx200d/1.3,2013-03-09 16:30:00,
2013-03-09 11:36:00,48.7,32.0,29.00,NNE,13,0.0,0.0,16,0.08,,,-99.99,wx200d/1.3,2013-03-09 16:36:00,
2013-03-09 11:42:00,48.9,32.0,29.00,NNW,348,2.7,0.0,16,0.08,,,-99.99,wx200d/1.3,2013-03-09 16:42:00,
2013-03-09 11:48:00,49.1,32.0,29.00,East,101,0.0,3.1,16,0.08,,,-99.99,wx200d/1.3,2013-03-09 16:48:00,
2013-03-09 11:54:00,49.1,32.0,29.00,NNW,327,3.1,4.0,16,0.08,,,-99.99,wx200d/1.3,2013-03-09 16:54:00,
2013-03-09 12:00:00,48.7,32.0,29.00,WNW,284,0.0,3.1,16,0.08,,,-99.99,wx200d/1.3,2013-03-09 17:00:00,
2013-03-09 12:06:00,48.6,32.0,29.00,NNW,339,0.0,2.7,16,0.08,,,-99.99,wx200d/1.3,2013-03-09 17:06:00,
2013-03-09 12:12:00,48.2,32.0,29.00,South,191,3.1,3.1,16,0.08,,,-99.99,wx200d/1.3,2013-03-09 17:12:00,
2013-03-09 12:18:00,47.7,32.0,28.97,NE,50,0.0,5.8,17,0.08,,,-99.99,wx200d/1.3,2013-03-09 17:18:00,
2013-03-09 12:24:00,47.3,32.0,28.97,NNE,19,2.2,3.6,17,0.08,,,-99.99,wx200d/1.3,2013-03-09 17:24:00,
2013-03-09 12:30:00,46.8,32.0,28.97,NNW,339,0.0,2.7,17,0.08,,,-99.99,wx200d/1.3,2013-03-09 17:30:00,
2013-03-09 12:36:00,46.6,32.0,28.97,North,353,3.1,0.0,17,0.08,,,-99.99,wx200d/1.3,2013-03-09 17:36:00,
2013-03-09 12:42:00,46.8,32.0,28.97,NNE,33,3.6,6.3,17,0.08,,,-99.99,wx200d/1.3,2013-03-09 17:42:00,
2013-03-09 12:48:00,46.8,32.0,28.97,NNW,344,2.2,0.0,17,0.08,,,-99.99,wx200d/1.3,2013-03-09 17:48:00,
2013-03-09 12:54:00,46.9,32.0,28.97,NE,46,0.0,3.6,17,0.08,,,-99.99,wx200d/1.3,2013-03-09 17:54:00,
2013-03-09 13:00:00,46.9,32.0,28.97,SSW,201,0.0,0.0,17,0.08,,,-99.99,wx200d/1.3,2013-03-09 18:00:00,
2013-03-09 13:06:00,46.9,32.0,28.97,North,357,3.1,0.0,17,0.08,,,-99.99,wx200d/1.3,2013-03-09 18:06:00,
2013-03-09 13:12:00,46.9,32.0,28.97,NNE,19,2.2,5.4,17,0.08,,,-99.99,wx200d/1.3,2013-03-09 18:12:00,
2013-03-09 13:18:00,46.8,32.0,28.97,NNE,32,0.0,0.0,17,0.08,,,-99.99,wx200d/1.3,2013-03-09 18:18:00,
2013-03-09 13:24:00,46.8,32.0,28.97,North,357,2.2,4.0,17,0.08,,,-99.99,wx200d/1.3,2013-03-09 18:24:00,
2013-03-09 13:30:00,46.4,32.0,28.97,WSW,242,2.2,0.0,17,0.08,,,-99.99,wx200d/1.3,2013-03-09 18:30:00,
2013-03-09 13:36:00,46.4,32.0,28.97,NNW,346,2.7,2.7,17,0.08,,,-99.99,wx200d/1.3,2013-03-09 18:36:00,
2013-03-09 13:42:00,46.4,32.0,28.97,SW,222,0.0,0.0,17,0.08,,,-99.99,wx200d/1.3,2013-03-09 18:42:00,
2013-03-09 13:48:00,46.4,32.0,28.97,North,4,0.0,0.0,17,0.08,,,-99.99,wx200d/1.3,2013-03-09 18:48:00,
2013-03-09 13:54:00,46.2,32.0,28.97,NNW,328,0.0,3.1,17,0.08,,,-99.99,wx200d/1.3,2013-03-09 18:54:00,
2013-03-09 14:00:00,46.2,32.0,28.97,WNW,297,3.1,3.1,17,0.08,,,-99.99,wx200d/1.3,2013-03-09 19:00:00,
2013-03-09 14:06:00,46.2,32.0,28.97,North,0,3.6,3.6,17,0.08,,,-99.99,wx200d/1.3,2013-03-09 19:06:00,
2013-03-09 14:12:00,46.0,32.0,28.97,North,353,3.6,5.4,17,0.08,,,-99.99,wx200d/1.3,2013-03-09 19:12:00,
2013-03-09 14:18:00,46.0,32.0,28.97,NE,34,3.6,3.6,17,0.08,,,-99.99,wx200d/1.3,2013-03-09 19:18:00,
2013-03-09 14:24:00,45.7,32.0,28.97,East,85,3.1,3.6,17,0.08,,,-99.99,wx200d/1.3,2013-03-09 19:24:00,
2013-03-09 14:30:00,45.3,32.0,28.97,NNW,345,3.1,3.1,17,0.08,,,-99.99,wx200d/1.3,2013-03-09 19:30:00,
2013-03-09 14:36:00,44.8,32.0,28.97,NW,310,2.2,2.7,17,0.08,,,-99.99,wx200d/1.3,2013-03-09 19:36:00,
2013-03-09 14:42:00,44.6,32.0,28.97,NNW,327,0.0,3.6,17,0.08,,,-99.99,wx200d/1.3,2013-03-09 19:42:00,
2013-03-09 14:48:00,44.6,32.0,28.97,NW,314,0.0,0.0,17,0.08,,,-99.99,wx200d/1.3,2013-03-09 19:48:00,
2013-03-09 14:54:00,44.4,32.0,28.97,NNE,23,3.6,3.6,18,0.08,,,-99.99,wx200d/1.3,2013-03-09 19:54:00,
2013-03-09 15:00:00,44.4,32.0,28.97,NNE,26,3.1,3.1,18,0.00,,,-99.99,wx200d/1.3,2013-03-09 20:00:00,
2013-03-09 15:06:00,44.2,32.0,28.97,North,0,0.0,3.1,18,0.00,,,-99.99,wx200d/1.3,2013-03-09 20:06:00,
2013-03-09 15:12:00,44.2,32.0,28.97,North,353,2.2,3.6,18,0.00,,,-99.99,wx200d/1.3,2013-03-09 20:12:00,
2013-03-09 15:18:00,44.2,32.0,28.97,WSW,256,0.0,0.0,18,0.00,,,-99.99,wx200d/1.3,2013-03-09 20:18:00,
2013-03-09 15:24:00,43.9,32.0,28.97,WSW,256,2.2,2.2,18,0.00,,,-99.99,wx200d/1.3,2013-03-09 20:24:00,
2013-03-09 15:30:00,44.1,32.0,28.97,NW,315,0.0,0.0,18,0.00,,,-99.99,wx200d/1.3,2013-03-09 20:30:00,
2013-03-09 15:36:00,43.9,32.0,28.97,North,0,0.0,0.0,18,0.00,,,-99.99,wx200d/1.3,2013-03-09 20:36:00,
2013-03-09 15:42:00,44.1,32.0,28.97,North,9,0.0,0.0,18,0.00,,,-99.99,wx200d/1.3,2013-03-09 20:42:00,
2013-03-09 15:48:00,43.9,32.0,28.97,WNW,294,0.0,5.8,18,0.00,,,-99.99,wx200d/1.3,2013-03-09 20:48:00,
2013-03-09 15:54:00,43.5,32.0,28.97,NW,316,0.0,0.0,18,0.00,,,-99.99,wx200d/1.3,2013-03-09 20:54:00,
2013-03-09 16:00:00,43.3,32.0,28.97,NNE,21,0.0,2.2,18,0.00,,,-99.99,wx200d/1.3,2013-03-09 21:00:00,
2013-03-09 16:06:00,43.2,32.0,28.97,NNE,14,0.0,0.0,18,0.00,,,-99.99,wx200d/1.3,2013-03-09 21:06:00,
2013-03-09 16:12:00,43.0,32.0,28.97,North,350,0.0,0.0,18,0.00,,,-99.99,wx200d/1.3,2013-03-09 21:12:00,
2013-03-09 16:18:00,42.8,32.0,28.97,NE,44,3.1,3.1,18,0.00,,,-99.99,wx200d/1.3,2013-03-09 21:18:00,
2013-03-09 16:24:00,42.6,32.0,28.97,NNE,18,0.0,0.0,18,0.00,,,-99.99,wx200d/1.3,2013-03-09 21:24:00,
2013-03-09 16:30:00,42.1,32.0,28.97,NW,324,0.0,0.0,18,0.00,,,-99.99,wx200d/1.3,2013-03-09 21:30:00,
2013-03-09 16:36:00,42.1,32.0,28.97,North,357,0.0,0.0,18,0.00,,,-99.99,wx200d/1.3,2013-03-09 21:36:00,
2013-03-09 16:42:00,41.7,32.0,28.97,NNE,17,2.2,0.0,18,0.00,,,-99.99,wx200d/1.3,2013-03-09 21:42:00,
2013-03-09 16:48:00,41.5,32.0,29.00,NNW,337,0.0,0.0,18,0.00,,,-99.99,wx200d/1.3,2013-03-09 21:48:00,
2013-03-09 16:54:00,41.0,32.0,29.00,West,267,0.0,0.0,18,0.00,,,-99.99,wx200d/1.3,2013-03-09 21:54:00,
2013-03-09 17:00:00,40.6,32.0,29.00,North,353,0.0,2.7,18,0.00,,,-99.99,wx200d/1.3,2013-03-09 22:00:00,
2013-03-09 17:06:00,40.5,32.0,29.00,NNE,15,0.0,0.0,18,0.00,,,-99.99,wx200d/1.3,2013-03-09 22:06:00,
2013-03-09 17:12:00,40.3,32.0,29.00,North,349,0.0,0.0,18,0.00,,,-99.99,wx200d/1.3,2013-03-09 22:12:00,
2013-03-09 17:18:00,39.7,32.0,29.00,North,349,0.0,0.0,18,0.00,,,-99.99,wx200d/1.3,2013-03-09 22:18:00,
2013-03-09 17:24:00,39.4,32.0,29.00,NNW,327,0.0,0.0,18,0.00,,,-99.99,wx200d/1.3,2013-03-09 22:24:00,
2013-03-09 17:30:00,38.8,32.0,29.00,North,353,0.0,0.0,19,0.00,,,-99.99,wx200d/1.3,2013-03-09 22:30:00,
2013-03-09 17:36:00,38.5,32.0,29.00,North,353,0.0,0.0,19,0.00,,,-99.99,wx200d/1.3,2013-03-09 22:36:00,
2013-03-09 17:42:00,38.1,32.0,29.00,North,353,0.0,0.0,19,0.00,,,-99.99,wx200d/1.3,2013-03-09 22:42:00,
2013-03-09 17:48:00,37.8,32.0,29.00,North,353,0.0,0.0,19,0.00,,,-99.99,wx200d/1.3,2013-03-09 22:48:00,
2013-03-09 17:54:00,37.4,32.0,29.00,North,353,0.0,0.0,19,0.00,,,-99.99,wx200d/1.3,2013-03-09 22:54:00,
2013-03-09 18:00:00,36.9,32.0,29.00,North,353,0.0,0.0,19,0.00,,,-99.99,wx200d/1.3,2013-03-09 23:00:00,
2013-03-09 18:06:00,36.7,32.0,29.00,North,353,0.0,0.0,19,0.00,,,-99.99,wx200d/1.3,2013-03-09 23:06:00,
2013-03-09 18:12:00,36.5,32.0,29.00,North,353,0.0,0.0,19,0.00,,,-99.99,wx200d/1.3,2013-03-09 23:12:00,
2013-03-09 18:18:00,36.3,32.0,29.00,North,353,0.0,0.0,19,0.00,,,-99.99,wx200d/1.3,2013-03-09 23:18:00,
2013-03-09 18:24:00,35.8,32.0,29.00,North,353,0.0,0.0,19,0.00,,,-99.99,wx200d/1.3,2013-03-09 23:24:00,
2013-03-09 18:30:00,35.6,32.0,29.00,North,353,0.0,0.0,19,0.00,,,-99.99,wx200d/1.3,2013-03-09 23:30:00,
2013-03-09 18:36:00,35.2,32.0,29.00,North,353,0.0,0.0,20,0.00,,,-99.99,wx200d/1.3,2013-03-09 23:36:00,
2013-03-09 18:42:00,35.1,32.0,29.00,North,353,0.0,0.0,20,0.00,,,-99.99,wx200d/1.3,2013-03-09 23:42:00,
2013-03-09 18:48:00,34.9,32.0,29.03,North,353,0.0,0.0,20,0.00,,,-99.99,wx200d/1.3,2013-03-09 23:48:00,
2013-03-09 18:54:00,34.5,32.0,29.03,North,353,0.0,0.0,20,0.00,,,-99.99,wx200d/1.3,2013-03-09 23:54:00,
2013-03-09 19:00:00,34.5,32.0,29.03,North,353,0.0,0.0,20,0.00,,,-99.99,wx200d/1.3,2013-03-10 00:00:00,
2013-03-09 19:06:00,34.5,32.0,29.03,North,353,0.0,0.0,20,0.00,,,-99.99,wx200d/1.3,2013-03-10 00:06:00,
2013-03-09 19:12:00,34.3,32.0,29.03,North,353,0.0,0.0,20,0.00,,,-99.99,wx200d/1.3,2013-03-10 00:12:00,
2013-03-09 19:18:00,34.2,32.0,29.03,North,353,0.0,0.0,20,0.00,,,-99.99,wx200d/1.3,2013-03-10 00:18:00,
2013-03-09 19:24:00,34.0,32.0,29.03,North,353,0.0,0.0,20,0.00,,,-99.99,wx200d/1.3,2013-03-10 00:24:00,
2013-03-09 19:30:00,33.8,32.0,29.03,North,353,0.0,0.0,20,0.00,,,-99.99,wx200d/1.3,2013-03-10 00:30:00,
2013-03-09 19:36:00,33.6,32.0,29.03,North,353,0.0,0.0,20,0.00,,,-99.99,wx200d/1.3,2013-03-10 00:36:00,
2013-03-09 19:42:00,33.4,32.0,29.03,North,353,0.0,0.0,20,0.00,,,-99.99,wx200d/1.3,2013-03-10 00:42:00,
2013-03-09 19:48:00,33.1,32.0,29.03,North,353,0.0,0.0,20,0.00,,,-99.99,wx200d/1.3,2013-03-10 00:48:00,
2013-03-09 19:54:00,33.1,32.0,29.03,North,353,0.0,0.0,20,0.00,,,-99.99,wx200d/1.3,2013-03-10 00:54:00,
2013-03-09 20:00:00,32.7,32.0,29.03,North,353,0.0,0.0,20,0.00,,,-99.99,wx200d/1.3,2013-03-10 01:00:00,
2013-03-09 20:06:00,32.7,32.0,29.03,North,353,0.0,0.0,20,0.00,,,-99.99,wx200d/1.3,2013-03-10 01:06:00,
2013-03-09 20:12:00,32.7,32.0,29.03,North,353,0.0,0.0,20,0.00,,,-99.99,wx200d/1.3,2013-03-10 01:12:00,
2013-03-09 20:18:00,32.5,32.0,29.03,North,353,0.0,0.0,20,0.00,,,-99.99,wx200d/1.3,2013-03-10 01:18:00,
2013-03-09 20:24:00,32.4,32.0,29.03,North,353,0.0,0.0,20,0.00,,,-99.99,wx200d/1.3,2013-03-10 01:24:00,
2013-03-09 20:30:00,32.2,32.0,29.03,North,353,0.0,0.0,20,0.00,,,-99.99,wx200d/1.3,2013-03-10 01:30:00,
2013-03-09 20:36:00,32.0,32.0,29.03,North,353,0.0,0.0,20,0.00,,,-99.99,wx200d/1.3,2013-03-10 01:36:00,
2013-03-09 20:42:00,31.8,32.0,29.03,North,353,0.0,0.0,20,0.00,,,-99.99,wx200d/1.3,2013-03-10 01:42:00,
2013-03-09 20:48:00,31.6,32.0,29.06,North,353,0.0,0.0,20,0.00,,,-99.99,wx200d/1.3,2013-03-10 01:48:00,
2013-03-09 20:54:00,31.5,32.0,29.06,North,353,0.0,0.0,20,0.00,,,-99.99,wx200d/1.3,2013-03-10 01:54:00,
2013-03-09 21:00:00,31.5,32.0,29.06,North,353,0.0,0.0,20,0.00,,,-99.99,wx200d/1.3,2013-03-10 02:00:00,
2013-03-09 21:06:00,31.3,32.0,29.06,North,353,0.0,0.0,20,0.00,,,-99.99,wx200d/1.3,2013-03-10 02:06:00,
2013-03-09 21:12:00,31.1,32.0,29.06,North,353,0.0,0.0,20,0.00,,,-99.99,wx200d/1.3,2013-03-10 02:12:00,
2013-03-09 21:18:00,31.1,32.0,29.03,North,353,0.0,0.0,20,0.00,,,-99.99,wx200d/1.3,2013-03-10 02:18:00,
2013-03-09 21:24:00,30.9,32.0,29.03,North,353,0.0,0.0,20,0.00,,,-99.99,wx200d/1.3,2013-03-10 02:24:00,
2013-03-09 21:30:00,30.7,32.0,29.03,North,353,0.0,0.0,20,0.00,,,-99.99,wx200d/1.3,2013-03-10 02:30:00,
2013-03-09 21:36:00,30.6,32.0,29.03,North,353,0.0,0.0,20,0.00,,,-99.99,wx200d/1.3,2013-03-10 02:36:00,
2013-03-09 21:42:00,30.4,32.0,29.03,North,353,0.0,0.0,20,0.00,,,-99.99,wx200d/1.3,2013-03-10 02:42:00,
2013-03-09 21:48:00,30.2,32.0,29.03,North,353,0.0,0.0,20,0.00,,,-99.99,wx200d/1.3,2013-03-10 02:48:00,
2013-03-09 21:54:00,30.0,32.0,29.03,North,353,0.0,0.0,20,0.00,,,-99.99,wx200d/1.3,2013-03-10 02:54:00,
2013-03-09 22:00:00,29.8,32.0,29.03,North,353,0.0,0.0,20,0.00,,,-99.99,wx200d/1.3,2013-03-10 03:00:00,
2013-03-09 22:06:00,30.0,32.0,29.03,North,353,0.0,0.0,20,0.00,,,-99.99,wx200d/1.3,2013-03-10 03:06:00,
2013-03-09 22:12:00,30.0,32.0,29.03,North,353,0.0,0.0,20,0.00,,,-99.99,wx200d/1.3,2013-03-10 03:12:00,
2013-03-09 22:18:00,29.8,32.0,29.06,North,353,0.0,0.0,20,0.00,,,-99.99,wx200d/1.3,2013-03-10 03:18:00,
2013-03-09 22:24:00,29.8,32.0,29.06,North,353,0.0,0.0,20,0.00,,,-99.99,wx200d/1.3,2013-03-10 03:24:00,
2013-03-09 22:30:00,29.7,32.0,29.06,North,353,0.0,0.0,20,0.00,,,-99.99,wx200d/1.3,2013-03-10 03:30:00,
2013-03-09 22:36:00,29.7,32.0,29.06,North,353,0.0,0.0,20,0.00,,,-99.99,wx200d/1.3,2013-03-10 03:36:00,
2013-03-09 22:42:00,29.5,32.0,29.06,North,353,0.0,0.0,23,0.00,,,-99.99,wx200d/1.3,2013-03-10 03:42:00,
2013-03-09 22:48:00,29.5,32.0,29.06,North,353,0.0,0.0,23,0.00,,,-99.99,wx200d/1.3,2013-03-10 03:48:00,
2013-03-09 22:54:00,29.3,32.0,29.06,North,353,0.0,0.0,23,0.00,,,-99.99,wx200d/1.3,2013-03-10 03:54:00,
2013-03-09 23:00:00,29.1,32.0,29.06,North,353,0.0,0.0,23,0.00,,,-99.99,wx200d/1.3,2013-03-10 04:00:00,
2013-03-09 23:06:00,28.9,32.0,29.06,North,353,0.0,0.0,23,0.00,,,-99.99,wx200d/1.3,2013-03-10 04:06:00,
2013-03-09 23:12:00,29.1,32.0,29.06,North,353,0.0,0.0,23,0.00,,,-99.99,wx200d/1.3,2013-03-10 04:12:00,
2013-03-09 23:18:00,29.1,32.0,29.06,North,353,0.0,0.0,23,0.00,,,-99.99,wx200d/1.3,2013-03-10 04:18:00,
2013-03-09 23:24:00,29.3,32.0,29.06,North,353,0.0,0.0,23,0.00,,,-99.99,wx200d/1.3,2013-03-10 04:24:00,
2013-03-09 23:30:00,29.3,32.0,29.06,North,353,0.0,0.0,23,0.00,,,-99.99,wx200d/1.3,2013-03-10 04:30:00,
2013-03-09 23:36:00,29.3,32.0,29.06,North,353,0.0,0.0,23,0.00,,,-99.99,wx200d/1.3,2013-03-10 04:36:00,
2013-03-09 23:42:00,29.3,32.0,29.06,North,353,0.0,0.0,23,0.00,,,-99.99,wx200d/1.3,2013-03-10 04:42:00,
2013-03-09 23:48:00,29.1,32.0,29.06,North,353,0.0,0.0,23,0.00,,,-99.99,wx200d/1.3,2013-03-10 04:48:00,
2013-03-09 23:54:00,29.1,32.0,29.06,North,353,0.0,0.0,23,0.00,,,-99.99,wx200d/1.3,2013-03-10 04:54:00,